Change the Weather History Date:

Sunday, July 28, 2013

  Actual Average (KBIS) Record (KBIS)
Temperature  
Mean Temperature 60 °F 72 °F  
Max Temperature 75 °F 86 °F 107 °F (1917)
Min Temperature 46 °F 58 °F 41 °F (1976)
Degree Days  
Heating Degree Days 4 0  
Month to date heating degree days 13  
Since 1 June heating degree days 106  
Since 1 July heating degree days 13  
Cooling Degree Days 0 7  
Month to date cooling degree days 179  
Year to date cooling degree days 279  
Since 1 June cooling degree days 262  
Growing Degree Days 10 (Base 50)    
Moisture  
Dew Point 46 °F    
Average Humidity 60    
Maximum Humidity 93    
Minimum Humidity 36    
Precipitation  
Precipitation 0.00 in 0.08 in 1.33 in (1989)
Month to date precipitation 2.63  
Year to date precipitation 11.27  
Snow  
Snow 0.00 in 0.00 in 0.00 in (2002)
Month to date snowfall 0.0  
Since 1 June snowfall 0.0  
Since 1 July snowfall 0.0  
Snow Depth -    
Sea Level Pressure  
Sea Level Pressure 30.04 in    
Wind  
Wind Speed 9 mph (ESE)    
Max Wind Speed 17 mph    
Max Gust Speed 22 mph    
Visibility 10 miles    
Events      
T = Trace of Precipitation, MM = Missing Value Source: NWS Daily Summary

Daily Weather History Graph

Daily Weather History Graph

Search for Another Location

Airport or City:

Trip Planner

Search our weather history database for the weather conditions in past years. The results will help you decide how hot, cold, wet, or windy it might be!

Date:

Astronomy

Jul. 28, 2013 Rise Set
Actual Time 6:19 AM CDT 9:20 PM CDT
Civil Twilight 5:43 AM CDT 9:55 PM CDT
Nautical Twilight 4:57 AM CDT 10:41 PM CDT
Astronomical Twilight 4:01 AM CDT 11:37 PM CDT
Moon No Moon Rise 1:33 PM CDT (7/28)
Length of Visible Light 16h 12m
Length of Day
15h 00m
Waning Gibbous, 60% of the Moon is Illuminated
Jul 28
Waning Gibbous
Jul 29
Last Quarter
Aug 6
New
Aug 14
First Quarter
Aug 20
Full

Hourly Weather History & Observations

Time (CDT) Temp. Windchill Dew Point Humidity Pressure Visibility Wind Dir Wind Speed Gust Speed Precip Events Conditions
12:15 AM 55.4 °F - 44.6 °F 67% 30.09 in 10.0 mi East 9.2 mph - N/A   Clear
12:35 AM 53.6 °F - 44.6 °F 72% 30.09 in 10.0 mi East 8.1 mph - N/A   Clear
12:55 AM 53.6 °F - 44.6 °F 72% 30.09 in 10.0 mi ESE 8.1 mph - N/A   Clear
1:15 AM 53.6 °F - 44.6 °F 72% 30.08 in 10.0 mi East 10.4 mph - N/A   Clear
1:35 AM 53.6 °F - 44.6 °F 72% 30.09 in 10.0 mi East 8.1 mph - N/A   Clear
1:55 AM 53.6 °F - 44.6 °F 72% 30.09 in 10.0 mi East 8.1 mph - N/A   Clear
2:15 AM 53.6 °F - 44.6 °F 72% 30.09 in 10.0 mi ESE 8.1 mph - N/A   Clear
2:35 AM 51.8 °F - 44.6 °F 76% 30.09 in 10.0 mi East 6.9 mph - N/A   Clear
2:55 AM 50.0 °F - 44.6 °F 82% 30.09 in 10.0 mi ESE 5.8 mph - N/A   Clear
3:15 AM 50.0 °F - 46.4 °F 87% 30.09 in 10.0 mi ESE 6.9 mph - N/A   Clear
3:35 AM 50.0 °F - 44.6 °F 82% 30.08 in 10.0 mi ESE 8.1 mph - N/A   Clear
3:55 AM 48.2 °F - 44.6 °F 87% 30.07 in 10.0 mi ESE 5.8 mph - N/A   Clear
4:15 AM 48.2 °F - 44.6 °F 87% 30.08 in 10.0 mi ESE 5.8 mph - N/A   Clear
4:35 AM 48.2 °F - 44.6 °F 87% 30.07 in 10.0 mi ESE 6.9 mph - N/A   Clear
4:55 AM 48.2 °F - 44.6 °F 87% 30.07 in 10.0 mi ESE 4.6 mph - N/A   Clear
5:15 AM 46.4 °F 45.2 °F 44.6 °F 93% 30.07 in 10.0 mi ESE 3.5 mph - N/A   Clear
5:35 AM 46.4 °F 43.5 °F 44.6 °F 93% 30.07 in 10.0 mi East 5.8 mph - N/A   Clear
5:55 AM 46.4 °F 42.9 °F 44.6 °F 93% 30.06 in 10.0 mi East 6.9 mph - N/A   Clear
6:15 AM 46.4 °F 43.5 °F 44.6 °F 93% 30.07 in 10.0 mi East 5.8 mph - N/A   Clear
6:35 AM 46.4 °F 43.5 °F 44.6 °F 93% 30.07 in 10.0 mi East 5.8 mph - N/A   Clear
6:55 AM 46.4 °F 45.2 °F 44.6 °F 93% 30.07 in 10.0 mi ESE 3.5 mph - N/A   Clear
7:15 AM 48.2 °F - 44.6 °F 87% 30.07 in 10.0 mi SE 4.6 mph - N/A   Clear
7:35 AM 50.0 °F - 44.6 °F 82% 30.07 in 10.0 mi ESE 5.8 mph - N/A   Clear
7:55 AM 50.0 °F - 46.4 °F 87% 30.07 in 10.0 mi ESE 5.8 mph - N/A   Clear
8:15 AM 53.6 °F - 46.4 °F 77% 30.07 in 10.0 mi ESE 6.9 mph - N/A   Clear
8:35 AM 53.6 °F - 46.4 °F 77% 30.07 in 10.0 mi ESE 8.1 mph - N/A   Clear
8:55 AM 55.4 °F - 46.4 °F 72% 30.07 in 5.0 mi SE 8.1 mph - N/A   Haze
9:15 AM 57.2 °F - 46.4 °F 67% 30.08 in 10.0 mi SE 6.9 mph - N/A   Clear
9:35 AM 59.0 °F - 48.2 °F 67% 30.07 in 10.0 mi ESE 8.1 mph - N/A   Clear
9:55 AM 60.8 °F - 48.2 °F 63% 30.07 in 10.0 mi ESE 6.9 mph - N/A   Clear
10:15 AM 62.6 °F - 46.4 °F 55% 30.07 in 10.0 mi SE 11.5 mph - N/A   Clear
10:35 AM 64.4 °F - 46.4 °F 52% 30.07 in 10.0 mi ESE 12.7 mph 17.3 mph N/A   Clear
10:55 AM 66.2 °F - 44.6 °F 46% 30.06 in 10.0 mi SSE 12.7 mph 19.6 mph N/A   Clear
11:15 AM 66.2 °F - 44.6 °F 46% 30.06 in 10.0 mi SSE 9.2 mph 20.7 mph N/A   Clear
11:35 AM 68.0 °F - 44.6 °F 43% 30.06 in 10.0 mi SSE 13.8 mph 19.6 mph N/A   Clear
11:55 AM 68.0 °F - 44.6 °F 43% 30.06 in 10.0 mi SE 15.0 mph - N/A   Clear
12:15 PM 68.0 °F - 44.6 °F 43% 30.06 in 10.0 mi SSE 12.7 mph - N/A   Clear
12:35 PM 68.0 °F - 44.6 °F 43% 30.05 in 10.0 mi SE 10.4 mph 19.6 mph N/A   Clear
12:55 PM 69.8 °F - 44.6 °F 40% 30.04 in 10.0 mi ESE 11.5 mph 19.6 mph N/A   Clear
1:15 PM 69.8 °F - 42.8 °F 38% 30.05 in 10.0 mi SSE 9.2 mph 16.1 mph N/A   Clear
1:35 PM 71.6 °F - 44.6 °F 38% 30.04 in 10.0 mi SE 15.0 mph 19.6 mph N/A   Clear
1:55 PM 69.8 °F - 44.6 °F 40% 30.04 in 10.0 mi SE 12.7 mph - N/A   Clear
2:15 PM 69.8 °F - 44.6 °F 40% 30.03 in 10.0 mi ESE 11.5 mph 17.3 mph N/A   Clear
2:35 PM 71.6 °F - 44.6 °F 38% 30.03 in 10.0 mi ESE 13.8 mph 18.4 mph N/A   Clear
2:55 PM 69.8 °F - 44.6 °F 40% 30.03 in 10.0 mi SSE 9.2 mph - N/A   Clear
3:15 PM 69.8 °F - 44.6 °F 40% 30.02 in 10.0 mi East 13.8 mph 17.3 mph N/A   Clear
3:35 PM 71.6 °F - 44.6 °F 38% 30.02 in 10.0 mi ESE 11.5 mph 16.1 mph N/A   Clear
3:55 PM 71.6 °F - 44.6 °F 38% 30.01 in 10.0 mi ESE 10.4 mph - N/A   Clear
4:15 PM 73.4 °F - 44.6 °F 36% 30.01 in 10.0 mi ESE 13.8 mph - N/A   Clear
4:35 PM 73.4 °F - 46.4 °F 38% 30.00 in 10.0 mi East 12.7 mph - N/A   Clear
4:55 PM 73.4 °F - 46.4 °F 38% 30.00 in 10.0 mi East 11.5 mph - N/A   Clear
5:15 PM 71.6 °F - 46.4 °F 41% 29.99 in 10.0 mi ESE 13.8 mph - N/A   Clear
5:35 PM 73.4 °F - 46.4 °F 38% 29.99 in 10.0 mi ESE 13.8 mph - N/A   Clear
5:55 PM 73.4 °F - 46.4 °F 38% 29.99 in 10.0 mi ESE 11.5 mph - N/A   Clear
6:15 PM 75.2 °F - 46.4 °F 36% 29.98 in 10.0 mi ESE 15.0 mph 19.6 mph N/A   Clear
6:35 PM 73.4 °F - 46.4 °F 38% 29.98 in 10.0 mi ESE 12.7 mph - N/A   Clear
6:55 PM 73.4 °F - 44.6 °F 36% 29.97 in 10.0 mi East 13.8 mph 21.9 mph N/A   Clear
7:15 PM 73.4 °F - 46.4 °F 38% 29.97 in 10.0 mi ESE 17.3 mph - N/A   Clear
7:35 PM 73.4 °F - 46.4 °F 38% 29.97 in 10.0 mi ESE 10.4 mph - N/A   Clear
7:55 PM 71.6 °F - 46.4 °F 41% 29.98 in 10.0 mi SE 11.5 mph - N/A   Clear
8:15 PM 68.0 °F - 46.4 °F 46% 29.99 in 10.0 mi SE 8.1 mph - N/A   Clear
8:35 PM 68.0 °F - 48.2 °F 49% 29.98 in 10.0 mi ESE 6.9 mph - N/A   Clear
8:55 PM 68.0 °F - 48.2 °F 49% 29.98 in 10.0 mi ESE 8.1 mph - N/A   Clear
9:15 PM 66.2 °F - 48.2 °F 52% 29.98 in 10.0 mi ESE 9.2 mph - N/A   Clear
9:35 PM 64.4 °F - 48.2 °F 56% 29.99 in 10.0 mi SE 6.9 mph - N/A   Clear
9:55 PM 62.6 °F - 48.2 °F 59% 29.99 in 10.0 mi SE 6.9 mph - N/A   Clear
10:15 PM 62.6 °F - 48.2 °F 59% 30.00 in 10.0 mi SE 8.1 mph - N/A   Clear
10:35 PM 62.6 °F - 46.4 °F 55% 29.99 in 10.0 mi SE 9.2 mph - N/A   Clear
10:55 PM 62.6 °F - 46.4 °F 55% 30.00 in 10.0 mi SE 8.1 mph - N/A   Clear
11:15 PM 60.8 °F - 46.4 °F 59% 30.00 in 10.0 mi SE 9.2 mph - N/A   Clear
11:35 PM 60.8 °F - 46.4 °F 59% 29.99 in 10.0 mi SE 8.1 mph - N/A   Clear
11:55 PM 60.8 °F - 46.4 °F 59% 30.00 in 10.0 mi SE 8.1 mph - N/A   Clear